Content
SEND FEEDBACK

Daily
Averages
Monthly
Summary
Mexico

SAN MARTINIANO, QUINTANA ROO


Home > North America > Mexico > Quintana Roo
Elevation: 49 feet     Latitude: 20 47N     Longitude: 087 16W

WEATHER
 
SELECT A DAY
Number of Records: 196,490;   Date Range: 2/21/06 - 7/29/14
 
SHARE

PRINT THIS DATA

[ ← Previous Day ]
WEATHER ALMANAC - FEBRUARY 20, 2013
[ Next Day → ]
[ °C ]   °F
Weather ElementAverageHighLow
Temperature67.3 °F78.8 °F (1:35 pm)57.2 °F (2:15 am)
Dewpoint36.2 °F64.4 °F (10:35 am) (7:00 pm)
Humidity64.5 %100 % (12:35 am)51 % (1:35 pm)
Barometer30.11 in30.17 in (8:35 am)30.05 in (2:55 pm)
Wind Speed3.2 mph8.1 mph (10:15 am)
Weather ElementAverage
Visibility7.7 mi
Wind DirectionESE (118.6 °)

Weather ElementTotal
Precipitation---
Cooling Degree Days3 (Base 65)
Growing Degree Days18 (Base 50)
Averaged from 66 records on February 20, 2013
WEATHER CONDITIONS BREAKOUT
WIND DIRECTION BREAKOUT
WEATHER BY HOUR - FEBRUARY 20, 2013
[ °C ]   °F
Local TimeTemperatureDewpointHumidityBarometerVisibilityWind DirectionWind SpeedGust SpeedPrecipitationEventsConditions
12:35 AM62.6 °F62.6 °F100 %30.12 in10.0 miSSW (200°)3.5 mphClear
1:15 AM60.8 °F0.0 °F30.12 in10.0 miCalmClear
1:35 AM60.8 °F0.0 °F30.12 in7.0 miCalmClear
1:55 AM60.8 °F0.0 °F30.12 in7.0 miSSW (210°)3.5 mphClear
2:15 AM57.2 °F0.0 °F30.12 in1.5 miCalmMist
2:35 AM57.2 °F0.0 °F30.12 in7.0 miCalmClear
2:55 AM57.2 °F0.0 °F30.11 in5.0 miSouth (180°)3.5 mphHaze
3:15 AM59.0 °F0.0 °F30.10 in1.5 miCalmMist
3:35 AM57.2 °F0.0 °F30.10 in2.0 miCalmMist
4:15 AM60.8 °F0.0 °F30.10 in3.0 miCalmOvercast
4:35 AM60.8 °F0.0 °F30.10 in1.8 miCalmOvercast
4:55 AM60.8 °F0.0 °F30.12 in1.8 miCalmMostly Cloudy
5:15 AM59.0 °F0.0 °F30.11 in0.8 miCalmMostly Cloudy
5:35 AM60.8 °F0.0 °F30.12 in0.5 miCalmFogFog
5:55 AM59.0 °F0.0 °F30.12 in0.5 miCalmFogFog
6:15 AM59.0 °F0.0 °F30.12 in1.2 miCalmOvercast
6:35 AM60.8 °F0.0 °F30.13 in4.0 miNNE (20°)3.5 mphHaze
7:15 AM60.8 °F0.0 °F30.14 in3.0 miNorth (10°)4.6 mphOvercast
7:35 AM62.6 °F0.0 °F30.15 in3.0 miNorth (10°)5.8 mphOvercast
7:55 AM62.6 °F0.0 °F30.15 in3.0 miNNE (20°)4.6 mphOvercast
8:15 AM62.6 °F0.0 °F30.15 in4.0 miNE (40°)6.9 mphHaze
8:35 AM62.6 °F0.0 °F30.17 in5.0 miNNE (20°)5.8 mphHaze
8:55 AM62.6 °F0.0 °F30.16 in7.0 miNNE (30°)4.6 mphOvercast
9:15 AM62.6 °F0.0 °F30.16 in7.0 miNE (40°)5.8 mphOvercast
9:35 AM64.4 °F0.0 °F30.16 in7.0 miENE (60°)5.8 mphOvercast
10:15 AM66.2 °F0.0 °F30.16 in7.0 miENE (60°)8.1 mphOvercast
10:35 AM68.0 °F64.4 °F88 %30.16 in10.0 miEast (80°)8.1 mphMostly Cloudy
10:55 AM71.6 °F59.0 °F64 %30.16 in10.0 miEast (90°)6.9 mphScattered Clouds
11:15 AM71.6 °F57.2 °F60 %30.15 in10.0 miENE (70°)4.6 mphClear
11:35 AM71.6 °F57.2 °F60 %30.15 in10.0 miENE (70°)3.5 mphClear
11:55 AM73.4 °F57.2 °F57 %30.14 in10.0 miNorth (360°)3.5 mphClear
12:15 PM75.2 °F57.2 °F53 %30.11 in10.0 miEast (90°)4.6 mphClear
12:35 PM75.2 °F59.0 °F57 %30.10 in10.0 miESE (110°)4.6 mphClear
12:55 PM77.0 °F59.0 °F54 %30.09 in10.0 miCalmClear
1:15 PM77.0 °F59.0 °F54 %30.08 in10.0 miENE (60°)3.5 mphScattered Clouds
1:35 PM78.8 °F59.0 °F51 %30.07 in10.0 miCalmScattered Clouds
1:55 PM77.0 °F59.0 °F54 %30.07 in10.0 miCalmMostly Cloudy
2:15 PM77.0 °F59.0 °F54 %30.06 in10.0 miCalmMostly Cloudy
2:35 PM78.8 °F59.0 °F51 %30.06 in10.0 miCalmScattered Clouds
2:55 PM78.8 °F59.0 °F51 %30.05 in10.0 miWSW (240°)4.6 mphScattered Clouds
3:15 PM78.8 °F59.0 °F51 %30.05 in10.0 miNW (310°)4.6 mphMostly Cloudy
3:55 PM78.8 °F59.0 °F51 %30.05 in10.0 miWNW (300°)6.9 mphScattered Clouds
4:15 PM78.8 °F59.0 °F51 %30.05 in10.0 miNW (320°)4.6 mphScattered Clouds
4:35 PM78.8 °F59.0 °F51 %30.07 in10.0 miWNW (290°)8.1 mphMostly Cloudy
4:55 PM77.0 °F59.0 °F54 %30.07 in10.0 miWNW (290°)6.9 mphOvercast
5:15 PM77.0 °F59.0 °F54 %30.08 in10.0 miWNW (290°)6.9 mphOvercast
5:35 PM77.0 °F59.0 °F54 %30.08 in10.0 miWNW (290°)4.6 mphMostly Cloudy
5:55 PM75.2 °F59.0 °F57 %30.08 in10.0 miNNW (330°)6.9 mphClear
6:15 PM73.4 °F59.0 °F61 %30.08 in10.0 miNW (320°)8.1 mphClear
6:35 PM71.6 °F59.0 °F64 %30.08 in10.0 miNNW (330°)5.8 mphClear
6:55 PM71.6 °F59.0 °F64 %30.09 in10.0 miNNW (340°)3.5 mphClear
7:15 PM69.8 °F59.0 °F68 %30.10 in10.0 miNorth (350°)3.5 mphClear
7:35 PM69.8 °F59.0 °F68 %30.10 in10.0 miNNW (340°)3.5 mphClear
7:55 PM68.0 °F57.2 °F68 %30.11 in10.0 miCalmClear
8:15 PM68.0 °F57.2 °F68 %30.12 in10.0 miCalmClear
8:35 PM66.2 °F57.2 °F73 %30.12 in10.0 miNorth (350°)3.5 mphScattered Clouds
8:55 PM66.2 °F57.2 °F73 %30.12 in10.0 miCalmScattered Clouds
9:15 PM66.2 °F57.2 °F73 %30.13 in10.0 miNorth (350°)4.6 mphMostly Cloudy
9:35 PM66.2 °F57.2 °F73 %30.13 in10.0 miNorth (350°)3.5 mphScattered Clouds
9:55 PM64.4 °F55.4 °F73 %30.13 in10.0 miNorth (350°)3.5 mphClear
10:15 PM62.6 °F55.4 °F77 %30.13 in10.0 miCalmClear
10:35 PM62.6 °F55.4 °F77 %30.12 in10.0 miCalmScattered Clouds
10:55 PM62.6 °F55.4 °F77 %30.12 in10.0 miCalmClear
11:15 PM60.8 °F55.4 °F82 %30.12 in10.0 miEast (90°)3.5 mphClear
11:35 PM60.8 °F57.2 °F88 %30.11 in10.0 miEast (80°)3.5 mphClear
11:55 PM60.8 °F57.2 °F88 %30.11 in10.0 miEast (90°)4.6 mphClear
Hourly data recorded from KPCM, located miles away from San Martiniano, Quintana Roo







STORIES FROM OUR PARTNERS